Terminal Aerodrome Forecast
Issued by NWS Shreveport, LA

Home | Current Version | Previous Version | Text Only | Print | Product List | Glossary On
Versions: 1 2 3 4 5 6 7 8 9 10 11 12 13 14 15 16 17 18 19 20 21
000
FTUS44 KSHV 212100 AAA
TAFLFK
TAF AMD
KLFK 212137Z 2122/2218 00000KT P6SM OVC017
     FM212300 15005KT P6SM SCT020 BKN045
     FM220500 16005KT 4SM BR OVC015
     FM220900 17007KT 1SM BR OVC007
      TEMPO 2211/2215 1/2SM DZ FG OVC004
     FM221600 17008KT 4SM BR OVC014=

USA.gov is the U.S. government's official web portal to all federal, state and local government web resources and services.